Temp
10 9 9 8 8 7 7 6 6 5 5 5 6 5 5 5 5 4 5 4 4 4 4 3 3 2 2 2 2 2 2 2 2 2 1 1 0 0 0 0 1 2 3
9 9 8 8 7 7 6 6 5 5 5 4 4 4 5 4 4 4 4 4 4 4 3 3 2 2 2 1 1 1 1 1 -0 -0 -1 -1 -1 -1 -0 -0 0 2 1
9 9 9 8 7 6 6 5 5 4 4 4 4 4 4 4 4 4 4 4 3 3 2 2 1 1 1 0 0 -0 -1 -2 -2 -2 -2 -2 -2 -2 -1 -1 -0 1 1
9 9 8 7 7 6 5 5 4 4 4 4 4 4 3 3 3 3 3 3 2 2 1 1 0 -0 -1 -2 -2 -2 -2 -3 -3 -3 -3 -3 -2 -1 -1 -1 -1 0 2
9 9 8 7 6 6 5 5 4 4 4 4 3 3 3 3 2 2 2 1 1 1 0 -1 -1 -3 -5 -5 -5 -4 -4 -4 -4 -4 -3 -3 -3 -2 -1 -1 -2 -1 -2
9 8 7 7 6 5 5 4 4 4 4 4 4 3 3 2 -0 -0 0 0 0 -0 -1 -2 -2 -3 -4 -6 -6 -6 -6 -5 -5 -5 -4 -4 -3 -3 -2 -3 -3 -1 0
8 7 7 6 5 5 5 5 4 4 4 4 4 3 2 1 -1 -1 -1 -1 -1 -1 -2 -3 -3 -3 -4 -4 -5 -5 -5 -6 -6 -5 -5 -4 -4 -3 -3 -3 -3 -3 -1
8 7 7 6 6 6 5 5 4 4 4 4 3 3 2 -0 -2 -2 -2 -2 -2 -2 -3 -4 -4 -4 -4 -6 -6 -5 -4 -4 -4 -5 -5 -5 -5 -5 -5 -4 -3 -3 -2
7 7 7 6 6 6 5 5 4 4 4 4 3 2 1 -0 -2 -3 -3 -3 -3 -4 -4 -4 -5 -5 -6 -8 -6 -6 -5 -4 -5 -6 -6 -6 -6 -6 -6 -5 -4 -3 -3
7 6 6 5 5 5 5 4 4 4 3 3 2 0 -1 -1 -3 -4 -4 -3 -4 -4 -4 -4 -5 -7 -8 -8 -7 -7 -6 -6 -6 -6 -6 -5 -5 -5 -6 -5 -4 -4 -3
5 5 5 5 4 4 4 4 4 3 3 1 -0 -1 -2 -2 -3 -4 -5 -5 -5 -5 -5 -4 -5 -7 -8 -8 -8 -7 -8 -8 -7 -7 -6 -6 -5 -4 -4 -4 -4 -4 -3
5 4 4 4 3 3 3 3 3 2 2 0 -2 -2 -1 -3 -4 -4 -5 -6 -6 -6 -6 -5 -6 -8 -8 -9 -9 -9 -9 -9 -7 -7 -6 -6 -5 -5 -5 -5 -5 -4 -4
4 4 3 3 2 2 2 3 3 2 2 1 0 -0 0 -1 -3 -4 -5 -6 -7 -7 -7 -7 -8 -9 -8 -7 -8 -9 -9 -8 -8 -7 -7 -6 -6 -6 -6 -5 -5 -4 -4
3 2 2 2 0 1 2 2 2 2 1 1 1 0 0 -1 -2 -3 -4 -4 -5 -6 -6 -6 -7 -8 -7 -7 -7 -7 -7 -8 -9 -8 -7 -7 -6 -6 -5 -4 -4 -4 -4
2 2 2 1 0 -0 -0 2 2 1 1 1 1 -0 -1 -2 -2 -3 -4 -4 -5 -5 -7 -6 -5 -6 -6 -6 -6 -6 -7 -8 -8 -8 -8 -7 -7 -6 -5 -5 -4 -4 -3
1 1 2 1 1 -0 -0 -0 0 -0 -1 -1 -1 -2 -3 -3 -3 -4 -4 -5 -6 -7 -7 -5 -5 -5 -6 -6 -6 -6 -7 -8 -9 -9 -8 -8 -7 -7 -6 -5 -5 -4 -3
0 1 1 1 1 1 0 -1 -0 -0 -1 -2 -2 -2 -3 -3 -4 -4 -4 -5 -6 -7 -6 -5 -5 -5 -6 -5 -6 -6 -7 -8 -9 -9 -9 -8 -8 -8 -7 -6 -5 -5 -4
-0 0 0 1 1 1 0 -0 -1 -1 -0 -1 -2 -2 -3 -3 -3 -4 -4 -6 -5 -6 -6 -5 -5 -5 -5 -5 -6 -6 -7 -8 -8 -9 -9 -9 -9 -8 -7 -7 -6 -6 -5
0 1 1 -0 -1 -1 -1 -0 -0 -1 -1 -1 -2 -2 -3 -3 -3 -4 -5 -5 -4 -4 -4 -4 -4 -5 -5 -6 -6 -7 -8 -9 -10 -10 -9 -9 -9 -9 -7 -7 -7 -7 -7
1 0 -1 -2 -2 -1 -1 -0 -0 -1 -1 -1 -1 -1 -1 -3 -4 -4 -4 -4 -5 -4 -4 -4 -4 -5 -5 -6 -6 -7 -8 -8 -8 -9 -9 -9 -9 -9 -9 -8 -7 -7 -6
1 1 -0 -1 -1 -2 -2 -1 -1 -1 -1 -1 -1 -2 -2 -2 -2 -3 -3 -3 -4 -4 -4 -4 -4 -5 -5 -6 -7 -7 -7 -8 -9 -9 -9 -9 -10 -9 -9 -9 -8 -7 -7
1 0 -0 -1 -1 -1 -1 -1 -2 -2 -1 -1 -1 -2 -2 -3 -4 -3 -3 -3 -3 -4 -4 -4 -4 -4 -5 -5 -6 -7 -7 -8 -9 -9 -10 -10 -10 -9 -9 -9 -9 -9 -8
-1 -1 -2 -1 -2 -2 -2 -2 -2 -3 -2 -2 -2 -2 -2 -3 -4 -3 -3 -3 -4 -4 -4 -4 -5 -5 -5 -6 -7 -7 -7 -7 -8 -10 -10 -10 -10 -9 -9 -9 -9 -9 -9
-1 -2 -2 -2 -2 -2 -2 -2 -3 -3 -3 -3 -3 -3 -3 -3 -3 -3 -3 -4 -4 -4 -4 -4 -5 -5 -5 -6 -7 -8 -8 -9 -10 -10 -11 -11 -11 -10 -10 -10 -9 -10 -10
-1 -2 -2 -2 -2 -2 -2 -3 -3 -3 -3 -3 -3 -3 -3 -3 -3 -3 -3 -4 -4 -4 -4 -4 -4 -4 -4 -5 -7 -7 -8 -8 -9 -11 -12 -12 -12 -12 -11 -10 -10 -10 -10
-2 -2 -2 -3 -3 -2 -2 -2 -3 -3 -3 -3 -3 -3 -4 -4 -4 -4 -4 -4 -4 -4 -4 -4 -5 -4 -4 -5 -5 -6 -7 -8 -9 -10 -11 -11 -11 -11 -10 -10 -11 -10 -10
Height
859 863 864 862 861 861 861 859 857 854 852 849 847 846 845 843 841 840 839 838 838 837 835 833 832 830 827 824 821 818 814 811 803 793 794 791 787 784 780 776 771 768 765
857 860 860 858 858 858 858 856 854 852 849 847 845 843 841 839 838 837 836 835 834 833 832 830 828 826 824 821 817 813 810 807 804 796 792 789 786 782 776 773 769 764 762
854 855 855 855 855 855 854 852 850 848 846 844 841 840 839 837 836 834 833 832 831 830 829 827 825 823 819 816 813 810 807 805 802 796 789 787 783 778 773 769 765 758 758
850 851 851 851 851 851 850 849 847 844 842 840 838 836 835 834 833 832 831 830 829 827 826 824 821 819 816 814 811 807 805 802 799 793 788 783 779 774 770 765 761 756 752
846 847 847 848 847 846 846 844 842 840 838 836 835 834 833 832 831 830 828 829 827 825 823 820 818 816 814 812 810 806 803 799 796 791 785 780 776 771 767 763 760 756 752
842 843 843 843 843 842 841 840 838 836 834 832 831 831 830 830 828 827 825 826 824 822 819 817 814 812 810 808 806 804 802 798 793 789 783 777 774 770 765 763 760 755 751
837 838 838 838 838 837 836 835 833 831 830 829 827 827 827 827 825 824 823 823 821 819 817 814 811 809 807 805 803 799 795 792 789 786 780 776 770 767 764 761 759 756 751
833 833 833 833 833 832 830 829 828 827 826 825 824 823 824 824 822 821 821 820 818 816 814 812 809 807 805 803 800 795 789 785 782 779 776 771 767 764 762 760 757 755 752
829 829 829 828 827 826 825 824 824 823 821 820 821 820 821 821 820 819 818 817 815 813 811 809 807 805 803 801 797 792 786 781 779 776 772 768 764 762 760 759 756 752 748
825 825 824 823 822 820 819 819 818 818 817 817 817 818 818 819 817 816 816 815 813 811 808 806 804 802 800 798 794 790 784 780 776 771 767 762 759 756 755 754 751 749 745
821 821 821 818 816 814 813 813 812 812 812 813 813 814 815 815 815 813 812 812 811 809 806 804 802 800 797 794 791 787 783 779 773 768 764 759 754 751 750 748 746 744 743
817 816 815 813 811 810 808 808 808 808 809 810 810 811 812 811 810 810 809 809 808 807 805 802 800 797 793 790 787 784 780 776 771 767 762 758 753 750 746 744 742 741 739
813 812 811 810 808 805 804 803 804 805 805 806 807 807 807 807 808 807 806 805 805 804 802 800 796 793 790 787 784 781 777 774 770 766 762 757 753 749 744 740 737 736 735
811 810 809 806 803 801 800 800 801 801 802 802 803 802 802 802 803 804 804 803 802 801 800 797 794 791 787 785 781 778 776 773 770 766 762 757 752 747 741 736 732 730 730
809 808 806 802 800 800 798 797 797 798 798 798 798 799 800 799 799 799 800 800 799 799 797 794 791 789 786 782 779 777 774 772 769 765 761 757 752 748 743 738 733 729 726
806 805 803 799 797 797 795 794 793 793 794 795 795 796 796 795 795 794 795 795 795 795 794 791 788 786 784 781 778 775 772 770 768 765 761 757 754 749 745 740 735 731 726
803 801 799 795 794 793 791 791 789 788 789 790 790 791 791 791 790 790 790 791 791 792 791 787 785 783 781 778 776 774 771 769 767 764 761 758 755 751 746 742 738 735 731
800 797 795 793 791 789 787 787 786 786 785 784 784 785 785 785 785 785 786 787 787 786 785 783 781 779 778 776 774 772 770 768 765 763 761 758 755 752 748 744 741 739 735
795 793 791 789 787 785 784 783 781 781 780 779 779 779 779 779 779 779 781 781 781 780 778 777 776 775 774 773 771 770 768 766 764 762 760 758 755 753 749 746 743 741 738
789 788 788 786 783 780 779 777 776 775 774 774 773 773 773 773 773 773 773 773 774 773 772 771 771 770 769 769 768 766 765 763 762 760 759 757 755 753 750 747 744 741 738
784 782 781 781 777 775 773 772 771 769 767 766 766 766 767 767 766 766 766 765 765 766 765 765 764 764 764 764 763 763 761 760 759 758 757 755 754 752 750 747 745 742 739
778 776 775 773 771 769 767 766 764 762 760 759 758 759 759 760 759 758 757 757 757 757 757 757 757 757 757 757 757 757 757 757 756 755 755 754 752 751 749 747 745 743 740
771 769 768 765 763 761 760 758 756 754 752 751 750 750 751 751 750 749 748 748 747 747 748 749 749 749 750 751 751 752 752 752 752 752 752 751 751 749 748 746 745 743 741
764 762 760 758 756 753 752 750 748 747 745 743 742 742 742 742 741 740 738 737 737 737 737 738 739 740 742 743 744 745 746 747 747 747 747 748 748 747 747 745 744 743 742
756 754 753 751 748 745 744 743 741 740 738 737 736 735 735 734 733 732 730 729 728 727 726 727 728 730 732 734 736 737 739 740 741 742 743 743 744 745 745 744 743 742 741
747 745 745 744 741 738 736 735 734 734 733 732 731 730 729 728 727 725 723 722 720 719 718 717 717 720 722 725 727 730 732 734 735 737 738 740 741 741 741 741 741 741 740
Wind_Speed
9 5 3 2 5 8 11 13 14 14 14 12 10 10 13 16 17 15 11 11 11 14 16 17 17 17 19 21 23 23 25 25 23 34 31 29 28 28 26 24 24 22 19
8 6 2 2 4 7 11 13 13 14 13 12 11 13 17 19 15 9 11 13 14 16 17 17 19 20 22 24 24 24 25 26 26 30 29 29 27 28 28 25 26 24 22
7 4 1 2 4 8 11 13 14 14 13 12 13 13 13 11 11 11 12 13 13 15 16 17 20 21 23 23 23 24 24 23 22 26 29 28 28 26 25 24 24 25 22
5 4 5 5 6 8 11 13 14 13 12 11 11 13 12 11 10 11 11 11 12 15 16 18 20 20 20 20 23 22 21 21 22 25 27 26 24 23 23 21 18 21 21
6 6 7 7 8 9 11 14 15 13 12 11 10 9 9 8 6 5 9 12 15 15 17 17 17 16 17 16 16 19 20 21 20 22 23 22 22 21 19 20 19 19 17
7 8 9 9 10 11 13 14 15 14 13 13 14 11 9 6 8 7 7 11 13 15 16 16 16 14 12 16 13 15 17 20 23 23 23 21 24 22 18 18 16 16 9
8 9 10 11 11 13 13 14 15 13 13 14 15 11 10 6 7 8 10 10 13 13 13 14 14 14 15 15 17 19 20 18 21 23 24 24 24 21 18 18 16 15 14
8 10 10 11 13 14 14 15 15 13 13 12 12 10 8 6 6 8 12 10 12 11 12 12 13 15 14 15 19 22 21 19 18 18 20 22 22 20 18 18 19 19 18
8 9 12 12 14 15 16 16 16 14 13 13 10 8 8 6 7 8 10 10 10 11 11 11 12 13 13 16 20 20 21 19 17 15 21 22 22 21 18 19 19 19 17
9 10 11 12 14 17 17 17 16 14 13 10 8 7 8 6 7 8 9 9 9 11 11 11 10 10 15 18 18 18 19 19 22 22 20 18 17 15 14 17 19 20 17
8 9 12 13 15 17 17 17 17 14 11 7 7 8 8 7 6 7 8 6 8 11 12 13 12 14 17 18 16 15 17 21 20 19 17 17 14 14 13 14 14 17 19
8 10 14 14 13 14 16 17 13 11 9 7 7 8 8 9 9 8 7 8 8 9 12 13 14 17 18 17 14 15 16 15 15 15 15 15 15 14 14 13 13 15 16
9 12 13 12 13 13 13 11 10 9 8 8 8 8 12 9 10 10 9 8 8 9 10 14 17 16 16 14 12 13 14 13 14 14 14 16 16 16 16 15 14 14 14
11 11 11 10 10 10 9 9 11 9 9 8 8 11 12 11 10 9 7 7 8 9 10 13 14 14 13 13 12 11 11 12 12 13 14 15 15 15 15 14 10 10 12
9 9 10 9 8 11 11 11 11 11 11 10 8 8 9 10 10 10 9 8 8 9 12 11 11 12 12 11 11 11 11 11 12 12 13 14 15 15 15 15 14 11 9
8 10 10 10 10 10 10 11 14 16 14 14 11 10 9 11 13 13 12 11 9 10 10 12 11 11 12 12 12 12 11 11 12 11 12 12 13 14 15 14 13 13 12
11 12 10 10 10 10 10 9 11 10 17 18 16 14 15 14 14 13 14 13 11 10 12 13 12 11 12 12 11 11 12 11 11 10 11 12 12 13 13 12 12 12 11
13 13 12 13 12 12 11 11 10 12 12 14 16 16 16 15 14 15 14 13 14 14 13 13 13 12 12 11 11 11 11 11 10 10 10 10 11 12 12 11 10 10 11
13 13 13 14 13 13 13 15 15 14 15 14 13 14 16 17 17 16 17 16 16 16 15 14 13 12 12 11 10 10 10 10 10 9 9 9 10 10 10 10 10 9 9
13 14 13 13 15 16 15 16 16 14 14 15 15 15 13 10 12 14 19 22 20 19 17 16 14 13 13 12 11 10 9 9 8 8 8 8 8 9 9 9 9 9 9
14 14 14 15 14 15 17 14 17 18 18 18 18 17 18 17 18 17 17 19 21 20 20 18 16 14 13 12 11 10 9 9 8 7 7 7 7 8 8 8 8 8 8
17 17 16 16 16 16 18 20 20 21 23 21 20 18 19 19 19 21 22 22 22 23 21 20 19 17 14 14 12 11 10 9 8 7 7 6 6 7 7 7 7 7 8
19 20 21 18 18 18 19 19 19 21 22 23 22 19 18 20 21 21 24 25 26 26 24 22 22 19 17 16 14 13 12 10 8 7 6 6 6 6 6 6 6 6 6
19 21 20 19 21 20 19 20 19 21 22 22 21 21 22 24 25 26 29 29 29 29 29 25 24 22 18 19 16 14 12 11 8 7 7 6 6 6 6 6 5 5 5
22 21 19 20 22 22 19 19 20 19 19 19 20 21 22 23 24 26 27 28 29 30 30 28 29 27 25 24 19 16 15 15 11 9 7 6 6 6 5 6 5 5 4
25 20 16 18 22 22 20 19 14 13 13 14 14 15 17 19 21 22 24 24 25 27 29 29 31 31 27 24 23 22 20 17 14 12 9 7 7 6 5 6 5 5 5
Wind_Direction
144 156 158 88 26 3 346 339 333 328 322 314 298 276 282 299 298 289 277 283 283 298 308 308 305 303 299 301 298 295 294 294 293 297 300 303 305 305 299 301 293 277 272
157 176 172 36 359 340 336 332 327 319 313 304 293 287 288 295 292 274 279 290 287 301 310 307 305 305 301 299 296 295 295 294 296 294 300 304 301 300 297 293 292 270 277
172 195 244 291 313 321 327 326 322 315 308 301 296 295 295 289 284 279 287 286 284 300 307 304 304 303 301 301 301 300 302 296 288 288 294 299 297 297 297 292 290 277 261
197 235 260 275 290 307 315 320 320 311 305 303 295 293 298 292 285 291 299 296 298 305 305 304 303 302 303 307 304 300 297 297 294 292 293 295 296 296 293 288 305 287 262
220 254 270 268 275 293 305 317 320 308 299 293 300 301 291 285 276 281 302 297 307 309 308 307 306 306 307 303 304 305 303 297 297 294 291 292 295 298 293 296 301 300 305
233 260 270 268 272 288 302 313 313 303 296 291 285 288 281 265 280 291 311 308 309 310 312 312 312 312 310 308 299 298 294 292 295 292 290 292 294 293 294 295 301 288 295
244 265 272 268 269 288 295 303 311 306 298 295 289 279 267 245 256 295 318 321 312 314 315 315 316 315 312 313 313 304 297 288 280 284 285 283 289 287 295 295 291 293 288
250 271 275 275 278 289 289 293 306 299 299 295 295 271 250 223 269 311 330 319 315 316 316 315 316 317 320 320 314 310 307 304 301 298 294 298 299 294 294 292 296 294 285
260 277 286 287 284 290 290 287 294 293 292 289 283 257 238 229 278 316 335 320 317 319 318 316 316 319 325 322 316 313 311 308 311 305 301 294 292 284 279 280 279 274 276
275 283 287 289 291 291 289 282 286 281 277 276 262 243 229 228 269 312 332 322 315 319 320 320 318 312 322 321 318 315 312 313 316 313 309 301 291 285 264 261 265 266 268
276 286 291 294 295 290 285 280 279 268 265 255 234 229 232 236 258 297 316 325 316 318 320 320 317 318 320 320 316 312 312 311 310 311 312 309 303 293 282 272 261 258 258
281 290 294 298 296 291 288 284 263 256 253 235 228 235 249 255 256 275 298 307 305 307 314 314 313 312 314 314 315 318 319 318 315 313 313 315 316 310 300 288 272 260 254
284 291 296 297 300 303 295 271 250 249 244 241 235 258 283 270 267 269 282 298 306 295 303 305 309 308 310 315 313 323 327 330 324 319 321 320 319 312 302 282 266 256 250
289 291 294 304 316 310 288 260 253 247 250 239 254 283 294 283 266 268 275 294 302 312 308 313 306 313 310 309 320 327 332 334 326 316 319 321 324 327 326 335 307 252 236
282 285 293 305 310 305 291 270 254 263 242 238 267 285 292 278 272 259 260 274 287 296 307 313 311 317 318 322 326 329 333 335 336 327 323 327 333 336 339 342 342 327 253
273 284 292 309 308 298 287 278 262 251 234 232 244 264 267 268 267 267 262 271 277 279 297 302 309 313 315 320 324 328 332 333 336 333 328 330 333 334 335 343 349 351 4
269 278 291 297 292 294 289 278 272 239 241 244 249 258 260 267 272 266 259 260 269 265 275 292 299 303 308 314 318 323 325 330 328 332 331 330 332 330 333 342 350 351 355
271 279 283 284 287 292 286 265 262 264 254 244 253 250 258 261 265 262 257 252 264 251 253 272 288 294 298 306 314 317 319 321 326 328 328 331 333 329 330 341 345 349 344
278 281 282 286 281 279 278 274 272 270 254 256 260 260 260 257 257 257 251 241 256 262 266 271 276 278 285 292 299 304 307 309 313 319 324 327 331 332 333 334 332 333 325
280 275 274 287 285 280 272 271 270 255 249 254 259 265 273 242 242 247 242 240 244 253 260 265 269 272 274 279 284 290 296 302 304 309 315 319 324 326 329 330 333 329 330
273 273 272 280 288 281 271 271 269 262 255 257 259 259 252 254 255 255 253 245 240 249 253 256 261 261 261 262 267 275 281 290 290 294 302 309 315 320 326 326 325 327 327
265 271 273 271 277 276 276 276 272 266 258 249 253 260 258 249 254 256 255 252 247 247 249 253 253 254 253 253 257 259 267 273 276 276 284 292 300 310 318 323 326 328 330
264 264 266 270 270 272 273 270 268 266 264 253 246 251 250 244 247 253 252 249 248 247 249 244 249 245 245 241 240 242 250 258 260 251 260 274 284 295 305 312 321 326 334
261 262 264 271 270 267 269 270 267 271 264 257 249 245 251 252 251 254 257 255 250 249 249 245 246 240 237 232 228 231 233 234 233 239 244 250 267 282 289 296 299 315 321
255 256 263 270 273 266 265 265 266 270 275 265 258 260 263 263 264 266 268 265 259 249 243 242 247 246 243 238 228 226 225 237 238 225 229 236 247 264 273 279 287 287 300
255 249 264 278 283 267 260 267 271 281 285 289 289 289 288 286 283 281 279 274 271 264 252 241 240 246 242 240 234 231 232 235 234 235 224 227 236 244 255 268 276 280 280